Regional Weather Roundup
Issued by NWS

Home | Current Version | Previous Version | Graphics & Text | Print | Product List | Glossary Off
Versions: 1 2 3 4 5 6 7 8 9 10 11 12 13 14 15 16 17 18 19 20 21 22 23 24 25 26 27 28 29 30 31 32 33 34 35 36 37 38 39 40 41 42 43 44 45 46 47 48 49 50

000
ASUS43 KFSD 021302
RWRSD

WEATHER ROUNDUP FOR SOUTH DAKOTA
NATIONAL WEATHER SERVICE SIOUX FALLS SD
800 AM CDT THU OCT 02 2014

NOTE: "FAIR" INDICATES FEW OR NO CLOUDS BELOW 12,000 FEET WITH NO
SIGNIFICANT WEATHER AND/OR OBSTRUCTIONS TO VISIBILITY.


SDZ001>005-009-010-012>017-021400-
NORTHWEST AND NORTH CENTRAL SOUTH DAKOTA

CITY           SKY/WX    TMP DP  RH WIND       PRES   REMARKS
BUFFALO          N/A     40  33  76 W12       29.88F
FAITH            N/A     40  36  86 SW6       29.95S
MOBRIDGE       CLEAR     42  40  92 CALM      29.90S
$$

SDZ012>016-024>037-041>051-057-063-072>074-021400-
SOUTHWEST AND SOUTH CENTRAL SOUTH DAKOTA

CITY           SKY/WX    TMP DP  RH WIND       PRES   REMARKS
RAPID CTY ARPT CLEAR     39  34  82 NW7       30.00S
PIERRE         PTCLDY    45  43  93 W8        29.93S
CUSTER         CLEAR     35  30  82 W3        30.04S
ELLSWORTH AFB  CLEAR     40  34  79 W8        29.99F
PHILIP         CLEAR     41  38  89 W9        29.97S
PINE RIDGE     CLEAR     40  37  89 SW3       30.03F
WINNER         FAIR      48  45  89 W7        29.95S FOG
$$

SDZ004>011-016>023-039-040-021400-
NORTHEAST SOUTH DAKOTA

CITY           SKY/WX    TMP DP  RH WIND       PRES   REMARKS
ABERDEEN       CLOUDY    50  48  93 W3        29.89S
WATERTOWN      CLOUDY    48  47  96 NE3       29.88S
SISSETON         N/A     50  47  89 NW3       29.86S
$$

SDZ017-020-022-023-036>040-048>070-021400-
SOUTHEAST SOUTH DAKOTA

CITY           SKY/WX    TMP DP  RH WIND       PRES   REMARKS
SIOUX FALLS    RAIN      54  51  90 W3        29.90R FOG
HURON          CLOUDY    51  49  92 W3        29.89F
CHAMBERLAIN    CLOUDY    49  47  93 W6        29.94R
MITCHELL       LGT RAIN  53  51  93 W3        29.91F
YANKTON        CLOUDY    54  52  94 NW12      29.91S
$$

ABBREVIATIONS USED IN REMARKS
   TC - TEMPERATURE IN CELSIUS
  WCI - WIND CHILL INDEX
   HX - HEAT INDEX
  VSB - VISIBILITY



USA.gov is the U.S. government's official web portal to all federal, state and local government web resources and services.